SKYNET 5D

Last updated on Sun Jun 21 2026 00:03:05 GMT+0000 (Coordinated Universal Time)

1 39034U 12075A 26171.40247052 .00000095 00000+0 00000+0 0 9997 2 39034 0.0657 357.9255 0003655 98.8857 9.4548 1.00271933 49198
UTC large
Height (km)
Speed (km/s)
/
Latitude / Longitude
Inclination (degrees)
Orbital Period (minutes)
Azimuth
Elevation
Range (km)
Doppler Factor

Next 0 passes for location: London (51.5072 / 0.1276)

No passes found over London.
SKYNET 5D